CAPE
0 0 0 0 0 0 0 0 0 0 0 0 0 0 0 0 0 0 0 2 0 1 0 0 0 15 5 26 69 119 186 434 590 705 595 283 215 101 49 23 0 16 0 0
0 0 0 0 0 0 0 0 0 0 1 0 0 0 0 0 5 0 0 0 1 0 1 0 42 96 123 53 48 181 292 676 952 776 470 190 191 121 0 0 0 0 0 0
0 0 0 0 0 0 0 0 0 0 0 0 0 0 0 0 0 8 0 0 9 6 10 22 176 222 191 200 242 478 780 651 461 142 3 42 0 0 0 0 0 0 0 0
0 0 0 0 0 0 0 0 0 0 0 0 0 0 0 0 0 1 1 0 0 25 46 102 173 359 264 362 518 563 468 180 1 0 0 0 0 0 0 0 0 0 0 0
0 0 0 0 0 0 0 0 0 0 0 0 0 0 0 0 0 11 17 0 0 11 62 105 146 381 485 324 454 345 148 3 0 0 0 0 0 0 0 0 0 0 0 0
0 0 0 0 0 0 0 0 0 0 0 0 0 0 0 0 9 13 17 0 0 2 36 87 313 248 232 231 247 148 37 2 0 0 0 0 0 0 0 0 0 0 0 0
0 0 0 0 0 0 0 0 0 0 0 0 0 0 0 0 0 0 0 0 0 0 0 27 371 190 120 57 16 0 0 0 0 0 0 0 0 0 0 0 0 0 0 0
0 0 0 0 0 0 0 0 0 0 0 9 0 0 0 0 0 2 0 0 0 5 15 35 342 203 59 7 0 0 0 0 0 0 0 0 0 0 0 0 0 2 2 3
0 0 1 0 0 0 0 0 0 0 0 0 0 26 71 12 0 0 0 0 46 34 42 64 87 38 5 0 0 0 0 0 0 0 0 0 0 0 0 0 1 1 4 4
0 0 0 0 0 0 0 0 10 4 0 0 0 9 49 1 0 0 0 1 24 4 26 102 86 7 0 0 0 0 0 0 0 0 0 0 0 0 0 3 1 0 2 0
8 0 0 22 2 0 0 0 0 0 23 4 0 117 20 23 0 0 20 12 0 20 30 19 3 0 0 0 0 0 0 0 0 0 0 0 0 4 3 1 3 1 0 1
26 1 0 2 28 0 0 0 5 1 0 41 134 21 55 9 2 1 0 78 4 0 49 64 0 0 0 0 0 0 0 0 0 0 0 2 0 0 0 0 0 0 2 5
22 16 1 1 9 26 48 5 94 30 101 40 256 25 83 0 1 47 5 258 193 134 112 3 0 0 0 0 0 0 0 0 0 0 1 0 1 1 0 0 0 1 1 1
0 87 174 51 5 63 61 33 13 34 30 24 42 85 200 15 4 43 62 238 139 96 28 0 0 0 0 0 0 0 0 0 0 0 0 0 0 0 0 1 0 0 0 0
0 2 63 77 108 134 106 69 0 1 0 12 1 0 7 8 31 0 7 93 98 22 0 0 0 0 0 0 0 0 0 0 1 0 0 0 0 0 0 0 0 0 0 0
1 24 41 36 100 36 7 38 83 28 7 9 0 0 0 18 94 74 24 37 21 0 0 0 0 0 0 0 0 0 3 2 0 0 0 0 1 0 2 1 0 0 0 0
232 112 48 0 28 6 2 61 91 77 38 1 0 29 3 5 89 30 32 39 0 0 0 0 0 0 0 0 0 1 1 0 1 2 5 1 2 2 6 1 0 0 0 0
38 120 174 26 0 0 0 12 28 1 0 0 1 5 6 18 46 64 6 0 0 0 0 0 0 0 0 0 0 0 0 3 0 3 6 0 0 3 7 1 0 0 0 0
63 137 18 77 41 0 2 16 94 19 51 28 15 5 2 1 55 29 0 0 0 0 0 0 0 0 0 0 1 1 0 3 3 4 3 2 3 1 0 2 0 0 0 5
6 293 137 21 35 47 71 116 152 21 9 28 0 17 319 156 143 0 0 0 0 0 0 0 0 0 0 0 0 0 2 1 0 0 0 5 2 0 0 5 0 0 0 0
95 184 210 123 54 39 180 95 38 39 142 1 0 0 128 186 122 0 0 0 0 0 0 0 0 0 0 0 0 0 0 0 0 0 0 5 0 0 0 0 0 0 0 0
54 130 134 20 6 7 374 329 179 423 421 59 3 6 151 0 0 0 0 0 0 0 0 0 0 0 0 0 0 0 0 0 0 0 0 1 4 2 3 0 0 0 0 0
21 77 107 55 167 44 222 330 458 314 282 133 82 26 5 0 0 0 0 0 0 0 0 0 0 0 0 0 0 0 0 0 0 0 6 0 4 0 0 0 0 0 0 0
22 157 51 8 8 57 46 39 254 131 183 183 1 0 0 9 0 0 0 0 0 0 0 0 0 0 0 0 0 0 0 0 0 1 0 0 0 0 0 0 0 0 0 0
46 7 2 81 19 15 48 127 166 45 71 70 27 8 0 5 0 0 0 0 0 0 0 0 0 0 0 0 0 0 0 0 0 0 0 0 0 0 0 0 0 0 0 0
149 72 12 43 59 151 282 199 72 27 13 11 11 1 12 26 0 0 0 0 0 0 0 0 0 0 0 0 0 0 0 0 0 0 0 0 0 0 0 0 0 0 0 0
CIN
-0 -0 -0 -0 -0 -0 -0 -0 -0 -0 -0 -0 -0 -0 -0 -0 -0 -0 -0 -1 -0 -9 -0 -0 -0 -161 -173 -178 -157 -143 -117 -81 -93 -83 -67 -82 -65 -98 -86 -99 -0 -70 -0 -0
-0 -0 -0 -0 -0 -0 -0 -0 -0 -0 -9 -0 -0 -0 -0 -0 -6 -1 -0 -0 -3 -0 -7 -1 -62 -74 -92 -108 -131 -105 -89 -45 -64 -85 -113 -105 -123 -128 -0 -0 -0 -0 -0 -0
-0 -0 -0 -0 -0 -0 -0 -0 -0 -0 -0 -0 -0 -0 -0 -0 -0 -7 -0 -0 -3 -8 -7 -14 -33 -60 -75 -91 -84 -29 -59 -118 -153 -229 -29 -80 -0 -0 -0 -0 -0 -0 -0 -0
-0 -0 -0 -0 -0 -0 -0 -0 -0 -0 -0 -0 -0 -0 -0 -0 -0 -6 -9 -0 -0 -2 -8 -5 -21 -49 -68 -57 -94 -135 -205 -224 -11 -0 -0 -0 -0 -0 -0 -0 -0 -0 -0 -0
-0 -0 -0 -0 -0 -0 -0 -0 -0 -0 -0 -0 -0 -0 -0 -0 -0 -5 -2 -0 -0 -1 -4 -4 -1 -20 -63 -143 -169 -227 -276 -135 -0 -0 -0 -0 -0 -0 -0 -0 -0 -0 -0 -0
-0 -0 -0 -0 -0 -0 -0 -0 -0 -0 -0 -0 -0 -0 -0 -0 -26 -6 -5 -0 -0 -20 -4 -3 -69 -119 -140 -171 -198 -220 -252 -96 -0 -0 -0 -0 -0 -0 -0 -0 -0 -0 -0 -0
-0 -0 -0 -0 -0 -0 -0 -0 -0 -0 -0 -0 -0 -0 -0 -0 -0 -21 -0 -0 -0 -0 -0 -6 -66 -109 -108 -164 -85 -0 -0 -0 -0 -0 -0 -0 -0 -0 -0 -0 -0 -0 -0 -0
-0 -0 -0 -0 -0 -0 -0 -0 -0 -0 -0 -11 -0 -0 -0 -0 -0 -91 -0 -0 -0 -65 -64 -6 -22 -68 -145 -163 -0 -0 -0 -0 -0 -0 -0 -0 -0 -0 -0 -0 -0 -0 -0 -1
-0 -0 -13 -0 -0 -0 -0 -0 -0 -0 -0 -0 -3 -15 -46 -14 -0 -0 -0 -0 -76 -61 -61 -95 -119 -133 -137 -0 -0 -0 -0 -0 -0 -0 -0 -0 -0 -0 -0 -1 -2 -0 -0 -0
-0 -0 -0 -13 -0 -0 -0 -0 -11 -7 -0 -0 -0 -21 -50 -34 -0 -0 -0 -16 -85 -44 -54 -109 -156 -129 -0 -0 -0 -0 -0 -0 -0 -0 -0 -0 -0 -0 -3 -1 -1 -0 -0 -0
-10 -0 -0 -5 -3 -0 -0 -0 -0 -0 -5 -3 -0 -7 -71 -120 -0 -7 -2 -6 -0 -21 -134 -128 -116 -0 -0 -0 -0 -0 -0 -0 -0 -0 -0 -0 -1 -1 -0 -1 -0 -0 -0 -0
-5 -3 -0 -3 -21 -0 -0 -1 -29 -1 -0 -17 -15 -37 -149 -44 -5 -1 -0 -16 -32 -0 -79 -103 -0 -0 -0 -0 -0 -0 -0 -0 -0 -0 -0 -0 -0 -1 -0 -1 -0 -0 -0 -0
-76 -16 -1 -1 -11 -9 -28 -18 -65 -74 -10 -2 -2 -49 -106 -0 -18 -29 -6 -14 -29 -59 -70 -56 -0 -0 -0 -0 -0 -0 -0 -0 -0 -0 -0 -0 -3 -1 -0 -0 -0 -0 -0 -0
-0 -49 -13 -3 -5 -45 -58 -61 -60 -106 -111 -71 -33 -37 -92 -57 -123 -41 -35 -13 -49 -86 -154 -0 -0 -0 -0 -0 -0 -0 -0 -0 -0 -0 -1 -0 -0 -0 -0 -0 -0 -0 -0 -0
-0 -46 -32 -8 -3 -2 -5 -27 -0 -36 -0 -66 -68 -37 -128 -21 -108 -0 -77 -33 -79 -175 -0 -0 -0 -0 -0 -0 -0 -0 -0 -0 -0 -0 -0 -1 -0 -0 -0 -0 -0 -0 -0 -0
-41 -121 -62 -31 -2 -5 -8 -3 -72 -42 -31 -68 -0 -0 -0 -42 -20 -57 -60 -56 -105 -0 -0 -0 -0 -0 -0 -0 -0 -0 -0 -0 -0 -3 -0 -5 -11 -25 -16 -8 -1 -0 -0 -0
-6 -40 -66 -4 -14 -2 -0 -15 -4 -11 -6 -8 -0 -6 -39 -37 -11 -55 -45 -83 -0 -0 -0 -0 -0 -0 -0 -0 -0 -1 -0 -0 -12 -12 -4 -2 -5 -7 -3 -3 -0 -0 -0 -0
-68 -18 -8 -60 -0 -0 -0 -8 -19 -8 -0 -0 -4 -43 -22 -43 -3 -71 -80 -0 -0 -0 -0 -0 -0 -0 -0 -0 -1 -1 -0 -4 -1 -2 -3 -0 -4 -6 -3 -2 -0 -0 -0 -0
-47 -26 -76 -31 -36 -0 -1 -7 -5 -43 -82 -90 -37 -50 -29 -20 -21 -101 -0 -0 -0 -0 -0 -0 -0 -0 -0 -0 -1 -2 -3 -1 -1 -2 -2 -1 -2 -2 -0 -2 -0 -0 -0 -7
-3 -6 -21 -3 -40 -27 -4 -43 -58 -80 -109 -81 -0 -26 -7 -23 -33 -0 -0 -0 -0 -0 -0 -0 -0 -0 -0 -0 -0 -0 -2 -1 -0 -0 -0 -1 -3 -0 -0 -1 -0 -0 -0 -0
-26 -15 -5 -8 -21 -12 -21 -67 -94 -38 -25 -143 -0 -0 -27 -34 -70 -0 -0 -0 -0 -0 -0 -0 -0 -0 -0 -0 -0 -0 -0 -0 -0 -0 -0 -3 -1 -0 -0 -0 -0 -0 -0 -0
-41 -9 -5 -42 -1 -1 -12 -8 -4 -26 -18 -102 -37 -85 -50 -0 -0 -0 -0 -0 -0 -0 -0 -0 -0 -0 -0 -0 -0 -0 -0 -0 -0 -0 -0 -6 -5 -2 -5 -0 -0 -0 -0 -0
-6 -7 -7 -25 -3 -62 -5 -12 -19 -33 -19 -82 -104 -187 -120 -0 -0 -0 -0 -0 -0 -0 -0 -0 -0 -0 -0 -0 -0 -0 -0 -0 -0 -0 -1 -0 -5 -0 -0 -0 -0 -0 -0 -0
-75 -29 -30 -10 -10 -27 -65 -74 -6 -19 -7 -43 -53 -0 -0 -4 -0 -0 -0 -0 -0 -0 -0 -0 -0 -0 -0 -0 -0 -0 -0 -0 -0 -1 -2 -0 -0 -0 -0 -0 -0 -0 -0 -0
-89 -23 -6 -3 -11 -36 -26 -11 -24 -57 -76 -53 -66 -63 -0 -10 -0 -0 -0 -0 -0 -0 -0 -0 -0 -0 -0 -0 -0 -0 -0 -0 -0 -0 -0 -0 -0 -0 -0 -0 -0 -0 -0 -0
-7 -27 -6 -23 -12 -11 -2 -4 -16 -36 -68 -50 -46 -16 -19 -6 -0 -0 -0 -0 -0 -0 -0 -0 -0 -0 -0 -0 -0 -0 -0 -0 -0 -0 -0 -0 -0 -0 -0 -0 -0 -0 -0 -0
Wind_Speed
3 4 1 0 4 13 32 15 9 9 5 5 3 6 8 3 3 3 3 3 3 5 4 4 2 2 5 6 9 11 14 15 18 21 25 26 28 32 32 33 35 36 37 40
16 10 10 5 3 4 10 26 22 17 16 4 7 10 8 8 8 6 5 5 4 4 5 4 4 3 4 8 11 13 13 16 21 25 28 27 28 30 33 33 36 40 41 45
8 4 4 10 14 18 18 17 17 18 10 11 15 23 17 10 10 10 7 6 6 5 5 5 4 5 4 8 12 11 17 20 23 27 27 29 32 33 35 38 40 41 46 47
19 15 17 17 16 17 17 16 16 18 17 19 8 21 14 10 11 11 9 6 7 6 4 4 5 5 5 9 11 14 17 21 24 27 29 32 34 37 38 39 41 45 46 45
18 15 16 17 16 14 15 20 20 15 21 26 21 22 20 20 18 12 9 7 7 7 6 6 6 7 5 9 12 16 19 22 25 28 30 32 36 37 39 42 45 45 42 43
16 22 16 14 14 12 16 17 19 18 22 24 18 20 20 20 26 5 5 5 7 7 7 11 7 7 8 10 13 16 19 22 25 29 31 34 38 40 43 44 46 44 45 44
18 17 16 15 19 12 12 16 20 19 18 21 17 16 12 16 16 14 12 9 11 13 13 13 6 7 8 12 15 16 22 26 29 32 34 37 39 42 43 45 45 48 46 43
15 17 11 11 13 14 11 14 18 22 24 22 22 16 16 13 13 13 14 15 14 14 14 6 6 8 11 16 20 23 27 30 32 34 37 38 39 41 43 44 45 43 42 42
22 24 22 9 10 12 15 14 14 26 30 30 22 16 14 13 13 15 14 12 11 10 12 11 12 13 15 19 22 25 29 31 34 37 38 40 41 43 44 44 42 41 41 42
20 26 22 11 10 12 15 21 17 18 25 28 26 24 20 16 24 14 11 9 9 7 8 10 12 15 18 22 24 27 31 34 36 39 40 41 42 43 42 42 42 42 41 42
14 20 22 17 14 18 16 19 24 25 19 20 25 20 15 9 6 9 10 9 8 9 10 11 13 15 21 24 28 31 33 35 38 39 41 41 42 41 41 41 41 41 39 39
17 20 22 21 15 13 17 21 16 22 24 26 23 23 26 24 13 11 15 16 9 4 5 9 13 16 23 27 30 32 34 36 39 40 39 40 39 40 39 39 38 37 33 30
20 16 23 25 26 25 20 23 24 27 28 23 25 30 27 23 34 24 14 12 11 11 11 12 16 22 25 29 31 33 36 38 38 38 38 38 38 37 37 36 34 37 38 37
22 23 22 22 24 28 25 34 40 33 30 32 33 35 20 14 14 17 23 11 11 12 14 16 19 23 27 29 32 34 36 36 35 35 36 36 36 35 33 33 35 36 37 38
19 25 27 31 28 24 32 24 24 27 46 31 42 45 45 21 14 11 7 10 11 13 16 19 22 24 27 30 32 34 34 33 33 34 34 33 33 30 32 34 34 33 35 38
13 22 26 31 21 13 25 13 20 27 28 36 46 46 31 12 7 2 8 10 12 15 18 20 21 24 27 30 32 32 32 32 31 31 33 31 30 29 31 30 31 30 34 37
20 23 22 28 21 17 19 14 21 41 33 26 34 26 15 14 12 5 8 9 12 15 18 20 21 24 27 29 29 30 30 30 29 29 31 31 29 31 32 31 31 33 32 34
23 24 25 24 25 17 22 22 20 22 36 35 29 32 21 21 6 7 8 10 13 14 17 19 21 24 25 26 27 28 27 28 29 30 30 30 30 32 33 34 33 33 15 20
18 19 25 25 22 25 22 25 23 18 29 30 35 28 31 7 7 11 11 11 13 14 17 18 21 22 23 25 26 28 28 27 29 30 31 31 32 33 33 33 35 25 17 5
15 15 19 23 29 30 31 20 16 16 38 33 30 35 15 11 13 10 10 11 12 14 16 18 19 21 23 23 25 28 28 30 31 31 30 28 31 32 31 32 26 21 15 9
16 17 21 23 27 25 23 21 15 19 29 25 26 30 33 12 12 3 8 10 11 13 15 17 19 21 22 24 26 28 29 30 30 29 27 25 30 30 22 29 29 15 14 8
20 20 21 22 22 26 24 20 19 20 22 25 23 30 2 3 5 6 7 9 11 13 15 17 19 20 22 25 26 28 29 28 28 26 22 28 27 26 27 27 25 21 13 14
27 20 21 15 14 17 20 19 17 19 21 21 16 12 19 5 7 6 7 9 11 13 15 16 18 19 22 24 26 27 27 27 26 25 25 29 27 19 21 21 24 26 27 28
21 23 20 19 22 20 20 19 18 17 18 14 13 11 11 7 7 7 8 10 11 13 14 16 17 19 22 24 26 27 27 25 26 27 24 14 23 15 22 22 26 29 30 28
17 19 25 14 19 19 19 19 13 14 14 12 9 10 10 6 6 8 7 9 11 12 14 15 16 19 21 23 24 26 26 25 27 27 21 23 15 14 18 25 17 15 4 3
23 17 21 22 14 17 16 18 18 14 13 11 8 10 5 4 5 7 8 9 10 12 14 15 17 19 21 23 23 24 25 25 26 26 20 8 16 14 15 7 7 7 13 9
Wind_Direction
88 355 183 53 170 192 237 312 315 318 218 206 259 265 315 246 230 230 250 238 230 223 243 238 222 333 351 348 347 343 341 341 340 339 338 337 338 336 336 336 335 336 337 335
296 313 311 191 309 263 298 295 302 314 311 282 323 311 281 282 262 256 240 249 242 258 243 249 230 238 309 328 332 333 334 336 340 338 337 337 337 337 335 337 337 334 334 330
299 292 322 312 304 303 303 300 303 306 319 314 311 307 303 276 266 242 228 233 243 237 243 237 241 248 286 317 323 332 338 341 340 339 340 339 336 336 336 334 333 333 330 328
295 303 306 306 303 305 304 309 300 307 305 300 302 308 311 286 272 264 235 240 249 255 268 268 255 268 281 316 352 347 348 344 345 343 340 338 337 334 334 334 333 331 330 330
297 302 302 306 304 304 305 317 318 305 305 304 302 306 315 319 305 261 241 268 272 261 272 279 295 316 356 8 354 348 346 345 344 343 341 340 336 335 335 333 332 332 333 333
297 300 307 312 307 305 308 320 309 314 310 301 303 300 306 309 325 315 247 287 302 291 303 319 342 18 16 6 358 351 349 347 346 344 342 339 336 335 333 333 332 333 333 333
295 291 300 306 305 304 302 314 307 301 299 304 309 289 289 331 339 339 348 349 353 344 335 333 15 8 7 0 357 355 348 344 343 341 339 338 336 335 335 334 334 333 332 332
295 300 281 285 290 296 292 298 299 306 306 317 322 314 308 334 337 322 317 320 329 337 333 331 11 24 13 358 351 346 343 340 341 341 340 338 338 337 336 336 335 334 334 333
293 299 316 286 296 292 294 294 304 296 301 302 306 308 326 328 334 326 324 326 334 348 10 18 12 10 5 357 350 345 342 342 341 340 340 339 340 339 338 337 337 336 335 334
287 294 302 311 308 306 291 298 305 300 301 298 303 305 308 315 314 322 341 0 352 352 9 14 13 4 2 353 351 346 343 341 340 340 341 341 341 341 340 340 339 338 337 336
291 286 296 296 297 300 296 294 290 299 298 299 301 312 339 320 310 326 349 357 336 6 31 19 11 4 355 349 346 344 343 342 342 343 343 343 343 344 344 343 343 343 343 341
302 290 284 284 300 316 307 295 296 290 291 291 294 292 278 322 340 327 325 348 16 8 21 11 2 2 349 347 345 345 345 344 344 345 347 347 348 348 348 348 349 350 357 0
308 297 287 290 291 293 296 300 308 312 298 290 295 292 298 303 291 308 329 358 17 32 23 14 1 351 348 346 346 346 345 345 347 349 350 351 352 354 355 355 358 356 356 358
297 289 293 292 295 298 306 294 285 294 296 297 296 293 300 304 283 317 320 339 15 21 11 4 353 349 347 348 347 346 347 350 352 354 355 356 357 0 4 7 2 2 4 4
292 288 288 282 296 300 298 308 300 291 273 296 287 290 286 290 293 317 250 346 7 8 1 353 347 347 349 348 348 349 352 356 358 359 359 0 1 5 4 8 9 12 12 9
302 295 295 292 299 271 245 278 302 296 300 292 281 280 257 311 348 351 309 331 347 360 355 353 352 352 350 350 352 354 359 0 1 3 2 1 4 7 6 9 13 21 18 15
302 301 303 296 304 300 247 293 302 293 292 293 283 270 301 297 301 330 328 341 3 357 355 356 357 355 354 356 359 3 5 6 6 6 6 6 10 2 5 7 12 11 19 21
295 296 299 301 305 264 309 315 314 305 295 292 279 297 300 303 280 326 330 355 360 357 359 2 1 359 1 5 9 10 9 11 11 10 9 13 8 358 357 346 2 351 45 44
285 292 293 296 299 305 314 319 323 319 299 304 287 290 301 261 345 356 10 7 359 358 5 9 6 8 11 12 14 13 15 16 14 12 13 12 354 353 350 358 356 314 299 282
277 279 288 296 297 301 312 334 342 330 294 298 300 277 249 234 286 316 4 3 6 9 16 15 15 17 16 19 19 18 20 18 16 14 14 17 357 356 338 344 324 313 298 285
277 277 284 290 296 306 318 338 357 331 305 312 300 288 263 265 304 31 22 14 15 20 23 22 20 16 22 21 21 20 21 20 20 21 20 23 5 358 314 338 341 311 304 293
279 283 284 293 292 298 320 329 324 339 319 311 312 259 6 32 51 55 38 25 21 26 25 23 21 25 26 25 24 24 24 25 26 27 33 17 17 17 354 347 340 331 318 315
273 281 288 291 306 320 326 334 341 339 323 317 330 350 329 187 93 55 28 22 17 24 23 24 27 29 28 30 28 27 28 29 29 30 33 21 21 316 334 332 342 343 346 351
282 293 281 285 296 308 324 327 333 341 330 336 338 334 340 321 42 33 5 12 18 21 24 25 30 28 27 31 29 31 31 33 32 32 39 354 336 310 338 338 352 8 1 357
286 288 278 285 299 311 315 329 341 342 337 336 335 331 322 337 8 13 1 16 20 25 27 24 26 27 27 29 30 33 33 36 34 33 47 357 309 308 329 17 43 55 118 85
273 284 289 299 306 309 321 326 330 337 325 334 320 316 323 318 18 27 9 11 26 32 28 27 27 25 25 28 31 34 36 38 35 37 54 282 314 307 319 293 142 142 103 109